Home   Weather   Melk   Past weeks

Flag for Austria Past Weather in Melk, Lower Austria, Austria — Yesterday and Last 2 Weeks

Now
15 °F

Cold.


Feels Like: 15 °F
Forecast: 11 / 24 °F
Wind: No wind

Location: Amstetten

Current Time: Jan 23, 2017 at 9:40:01 am

Latest Report: Jan 23, 2017 at 8:00 am


Visibility: N/A

Pressure: 30.34 "Hg

Humidity: 94%

Dew Point: 14 °F

Location of MelkLocation

Past Weather in Melk — Graph

°F

Melk Temperature Yesterday

Maximum temperature yesterday: 32 °F (at 4:00 pm)
Minimum temperature yesterday: 19 °F (at 6:00 am)
Average temperature yesterday: 25 °F

High & Low Weather Summary for the Past Weeks

 TemperatureHumidityPressure
High41 °F (Jan 13, 10:00 am)100% (Jan 12, 7:00 pm)30.69 "Hg (Jan 12, 7:00 pm)
Low3 °F (Jan 11, 8:00 am)60% (Jan 13, 2:00 pm)29.44 "Hg (Jan 13, 4:00 am)
Average25 °F86%30.25 "Hg
* Reported Jan 8 8:00 am — Jan 23 8:00 am, Melk, Weather by CustomWeather, © 2017

Note: Actual official high and low records may vary slightly from our data, if they occured in-between our weather recording intervals... More about our weather records

Advertising

Melk Weather History for the Previous 24 Hours

Scroll right to see more
 ConditionsComfort  
Time TempWeatherWind HumidityBarometerVisibility
8:00 am
Mon, Jan 23
15 °FCold.No wind94%30.34 "HgN/A
7:00 am14 °FClear.No wind95%30.34 "HgN/A
6:00 am18 °FCold.1 mph91%30.33 "HgN/A
5:00 am20 °FCold.2 mph85%30.32 "HgN/A
4:00 am23 °FCold.3 mph83%30.31 "HgN/A
3:00 am23 °FCold.5 mph82%30.30 "HgN/A
2:00 am23 °FCold.5 mph80%30.30 "HgN/A
1:00 am24 °FCold.7 mph80%30.29 "HgN/A
12:00 am26 °FChilly.5 mph77%30.31 "HgN/A
11:00 pm
Sun, Jan 22
26 °FChilly.5 mph75%30.31 "HgN/A
10:00 pm27 °FChilly.6 mph74%30.31 "HgN/A
9:00 pm28 °FChilly.6 mph71%30.31 "HgN/A
8:00 pm29 °FChilly.5 mph70%30.32 "HgN/A
7:00 pm30 °FChilly.5 mph69%30.31 "HgN/A
6:00 pm31 °FChilly.6 mph72%30.31 "HgN/A
5:00 pm31 °FChilly.5 mph70%30.32 "HgN/A
4:00 pm32 °FChilly.7 mph67%30.32 "HgN/A
3:00 pm32 °FChilly.8 mph67%30.34 "HgN/A
2:00 pm30 °FChilly.7 mph70%30.35 "HgN/A
1:00 pm28 °FChilly.7 mph72%30.37 "HgN/A
12:00 pm26 °FChilly.7 mph73%30.40 "HgN/A
11:00 am23 °FCold.7 mph79%30.42 "HgN/A
10:00 am21 °FCold.7 mph83%30.43 "HgN/A
9:00 am20 °FCold.5 mph87%30.43 "HgN/A
Weather by CustomWeather, © 2017

See weather overviewHow to use our weather pages